Tracking 21094 objects as of 12-Aug-2020
HD Live streaming from Space Station
objects crossing your sky now
Track the most recent launched group of Starlink satellites

STARLINK 1036

Track STARLINK 1036 now!
10-day predictions
STARLINK 1036 is classified as:


NORAD ID: 44741
Int'l Code: 2019-074AE
Perigee: 555.9 km
Apogee: 557.8 km
Inclination: 53.0 °
Period: 95.6 minutes
Semi major axis: 6927 km
RCS: Unknown
Launch date: November 11, 2019
Source: United States (US)
Launch site: AIR FORCE EASTERN TEST RANGE (AFETR)
aabbcc
Your satellite tracking list
Your tracking list is empty




NASA's NSSDC Master Catalog

Two Line Element Set (TLE):
1 44741U 19074AE  20225.58334491 -.00020135 +00000-0 -13665-2 0  9995
2 44741 052.9996 342.5656 0001384 110.6476 219.0304 15.05583375001769
Source of the keplerian elements: AFSPC